This is the latest recevied weather packets stored in our database for station/object AA9VI-10. If no packets are shown the sender has not sent any weather packets the latest 10 day(s).
| Time | Temp. | Humidity | Pressure | Rain* | Wind** | Luminosity | Snow |
|---|---|---|---|---|---|---|---|
| 1777490416 | 10.56° C | 75% | 1013.9 hPa | 0 mm | - | - | - |
| 1777489817 | 10° C | 77% | 1013.8 hPa | 0 mm | - | - | - |
| 1777489216 | 9.44° C | 77% | 1013.8 hPa | 0 mm | - | - | - |
| 1777488617 | 9.44° C | 76% | 1013.9 hPa | 0 mm | - | - | - |
| 1777488016 | 10° C | 75% | 1013.7 hPa | 0 mm | - | - | - |
| 1777487416 | 10° C | 75% | 1013.7 hPa | 0 mm | - | - | - |
| 1777486817 | 10° C | 76% | 1013.6 hPa | 0 mm | - | - | - |
| 1777486217 | 10° C | 79% | 1013.6 hPa | 0 mm | - | - | - |
| 1777485617 | 9.44° C | 78% | 1013.6 hPa | 0 mm | - | - | - |
| 1777485017 | 8.89° C | 79% | 1013.5 hPa | 0 mm | - | - | - |
| 1777484417 | 8.89° C | 80% | 1013.6 hPa | 0 mm | - | - | - |
| 1777483817 | 8.89° C | 79% | 1013.6 hPa | 0 mm | - | - | - |
| 1777483217 | 9.44° C | 79% | 1013.6 hPa | 0 mm | - | - | - |
| 1777482616 | 9.44° C | 79% | 1013.5 hPa | 0 mm | - | - | - |
| 1777482016 | 10° C | 77% | 1013.5 hPa | 0 mm | - | - | - |
| 1777481417 | 10.56° C | 75% | 1013.4 hPa | 0 mm | - | - | - |
| 1777480816 | 11.11° C | 72% | 1013.4 hPa | 0 mm | - | - | - |
| 1777480216 | 12.22° C | 73% | 1013.3 hPa | 0 mm | - | - | - |
| 1777479616 | 12.22° C | 71% | 1013.3 hPa | 0 mm | - | - | - |
| 1777479016 | 12.22° C | 71% | 1013.2 hPa | 0 mm | - | - | - |
| 1777478416 | 12.22° C | 72% | 1013.2 hPa | 0 mm | - | - | - |
| 1777477816 | 12.22° C | 72% | 1013.2 hPa | 0 mm | - | - | - |
| 1777477217 | 12.22° C | 71% | 1013.2 hPa | 0 mm | - | - | - |
| 1777476616 | 12.22° C | 71% | 1013.1 hPa | 0 mm | - | - | - |
| 1777476016 | 12.22° C | 70% | 1013.2 hPa | 0 mm | - | - | - |
* Rain latest hour (hover to see other rain measurements)
** Current wind speed in m/s (hover to see current wind gust speed)